Location: Unspecified
(10.5000°N, 0.0000°E)
Time: 16:49:45
(UTC+00:00)

Envisat - Pass Details

Date: 22 June 2019
Orbit: 764 x 766 km, 98.1° (Epoch: 21 July)

Event Time Altitude Azimuth Distance (km) Brightness Sun altitude
Rises 19:54:19 0° 208° (SSW) 3,224 6.2 -20.6°
Reaches altitude 10° 19:58:12 10° 239° (WSW) 2,298 5.8 -21.4°
Maximum altitude 20:00:04 12° 261° (W) 2,161 6.0 -21.8°
Drops below altitude 10° 20:01:56 10° 283° (WNW) 2,297 6.5 -22.2°
Sets 20:05:50 0° 313° (NW) 3,223 7.6 -23.0°
